• In Sweden
  • List of Countries
  • For 7 days
  • Water Temperature
  • Satellite Maps
  • Weather Map
  • Weather Widgets
  • user-avatar
    Login

    Hourly Weather Suholom

    Today, 22 October, Monday

    Time Temperature Precipitation Wind Pressure Humidity
    00:00 +5°C° 0 mm 2 mps 755 mmHg 76%
    01:00 +3°C° 0 mm 3 mps 755 mmHg 79%
    02:00 +2°C° 0 mm 3 mps 755 mmHg 83%
    03:00 +2°C° 0 mm 3 mps 754 mmHg 84%
    04:00 +2°C° 0 mm 3 mps 754 mmHg 85%
    05:00 +1°C° 0 mm 4 mps 754 mmHg 86%
    06:00 +1°C° 0 mm 4 mps 753 mmHg 85%
    07:00 +2°C° 0 mm 5 mps 753 mmHg 83%
    08:00 +2°C° 0 mm 5 mps 752 mmHg 80%
    09:00 +3°C° 0 mm 6 mps 752 mmHg 76%
    10:00 +4°C° 0 mm 6 mps 751 mmHg 72%
    11:00 +5°C° 0 mm 6 mps 750 mmHg 68%
    12:00 +5°C° 0 mm 6 mps 750 mmHg 66%
    13:00 +5°C° 0 mm 6 mps 749 mmHg 65%
    14:00 +7°C° 0 mm 6 mps 748 mmHg 63%
    15:00 +5°C° 0 mm 6 mps 748 mmHg 66%
    16:00 +5°C° 0 mm 6 mps 747 mmHg 68%
    17:00 +5°C° 0 mm 5 mps 747 mmHg 71%
    18:00 +5°C° 0.1 mm 5 mps 746 mmHg 72%
    19:00 +5°C° 0.1 mm 5 mps 746 mmHg 74%
    20:00 +5°C° 0.1 mm 5 mps 745 mmHg 76%
    21:00 +3°C° 0.4 mm 5 mps 744 mmHg 78%
    22:00 +3°C° 0.4 mm 5 mps 744 mmHg 81%
    23:00 +3°C° 0.4 mm 5 mps 743 mmHg 83%

    Tomorrow, 23 October, Tuesday

    Time Temperature Precipitation Wind Pressure Humidity
    00:00 +3°C° 0.5 mm 5 mps 743 mmHg 84%
    01:00 +3°C° 0.5 mm 5 mps 742 mmHg 86%
    02:00 +3°C° 0.5 mm 5 mps 741 mmHg 87%
    03:00 +4°C° 0.7 mm 4 mps 741 mmHg 88%
    04:00 +4°C° 0.7 mm 4 mps 740 mmHg 89%
    05:00 +5°C° 0.7 mm 4 mps 740 mmHg 90%
    06:00 +5°C° 0.3 mm 4 mps 740 mmHg 89%
    07:00 +5°C° 0.3 mm 4 mps 740 mmHg 87%
    08:00 +5°C° 0.3 mm 4 mps 740 mmHg 86%
    09:00 +5°C° 0 mm 4 mps 740 mmHg 81%
    10:00 +7°C° 0 mm 3 mps 740 mmHg 77%
    11:00 +7°C° 0 mm 3 mps 740 mmHg 72%
    12:00 +7°C° 0 mm 3 mps 739 mmHg 71%
    13:00 +7°C° 0 mm 3 mps 739 mmHg 70%
    14:00 +7°C° 0 mm 3 mps 739 mmHg 68%
    15:00 +6°C° 0 mm 2 mps 738 mmHg 73%
    16:00 +6°C° 0 mm 2 mps 738 mmHg 78%
    17:00 +6°C° 0 mm 1 mps 737 mmHg 83%
    18:00 +4°C° 0 mm 2 mps 737 mmHg 85%
    19:00 +4°C° 0 mm 2 mps 736 mmHg 86%
    20:00 +4°C° 0 mm 2 mps 736 mmHg 88%
    21:00 +4°C° 0 mm 2 mps 735 mmHg 89%
    22:00 +3°C° 0 mm 2 mps 735 mmHg 90%
    23:00 +3°C° 0 mm 2 mps 734 mmHg 91%

    Day after tomorrow, 24 October, Wednesday

    Time Temperature Precipitation Wind Pressure Humidity
    00:00 +3°C° 0 mm 2 mps 733 mmHg 91%
    01:00 +3°C° 0 mm 2 mps 733 mmHg 91%
    02:00 +3°C° 0 mm 2 mps 732 mmHg 91%
    03:00 +3°C° 0 mm 2 mps 731 mmHg 92%
    04:00 +3°C° 0 mm 2 mps 731 mmHg 92%
    05:00 +2°C° 0 mm 2 mps 730 mmHg 93%
    06:00 +1°C° 0 mm 3 mps 730 mmHg 92%
    07:00 +1°C° 0 mm 3 mps 730 mmHg 90%
    08:00 +2°C° 0 mm 3 mps 730 mmHg 89%
    09:00 +3°C° 0 mm 3 mps 729 mmHg 84%
    10:00 +4°C° 0 mm 3 mps 729 mmHg 78%
    11:00 +5°C° 0 mm 3 mps 729 mmHg 73%
    12:00 +5°C° 0 mm 3 mps 729 mmHg 72%
    13:00 +5°C° 0 mm 3 mps 729 mmHg 70%
    14:00 +5°C° 0 mm 3 mps 729 mmHg 69%
    15:00 +5°C° 0.2 mm 3 mps 729 mmHg 73%
    16:00 +4°C° 0.2 mm 3 mps 729 mmHg 77%
    17:00 +3°C° 0.2 mm 3 mps 729 mmHg 80%
    18:00 +3°C° 0.2 mm 3 mps 730 mmHg 82%
    19:00 +3°C° 0.2 mm 3 mps 730 mmHg 83%
    20:00 +3°C° 0.2 mm 3 mps 730 mmHg 84%
    21:00 +3°C° 0 mm 3 mps 730 mmHg 85%
    22:00 +3°C° 0 mm 3 mps 730 mmHg 86%
    23:00 +3°C° 0 mm 4 mps 730 mmHg 86%

    25 October, Thursday

    Time Temperature Precipitation Wind Pressure Humidity
    00:00 +3°C° 0.1 mm 4 mps 730 mmHg 87%
    01:00 +3°C° 0.1 mm 4 mps 729 mmHg 88%
    02:00 +3°C° 0.1 mm 4 mps 729 mmHg 88%
    03:00 +2°C° 0.7 mm 5 mps 729 mmHg 88%
    04:00 +2°C° 0.7 mm 5 mps 728 mmHg 87%
    05:00 +2°C° 0.7 mm 5 mps 728 mmHg 87%
    06:00 +2°C° 1.2 mm 6 mps 728 mmHg 87%
    07:00 +2°C° 1.2 mm 6 mps 727 mmHg 87%
    08:00 +2°C° 1.2 mm 6 mps 727 mmHg 87%
    09:00 +2°C° 0.9 mm 6 mps 726 mmHg 87%
    10:00 +2°C° 0.9 mm 6 mps 725 mmHg 86%
    11:00 +3°C° 0.9 mm 7 mps 725 mmHg 86%
    12:00 +3°C° 1.7 mm 6 mps 724 mmHg 86%
    13:00 +3°C° 1.7 mm 6 mps 724 mmHg 86%
    14:00 +2°C° 1.7 mm 6 mps 723 mmHg 86%
    15:00 +2°C° 1.6 mm 7 mps 723 mmHg 86%
    16:00 +2°C° 1.6 mm 7 mps 723 mmHg 86%
    17:00 +2°C° 1.6 mm 7 mps 722 mmHg 86%
    18:00 0°C° 1.5 mm 7 mps 722 mmHg 86%
    19:00 0°C° 1.5 mm 7 mps 722 mmHg 86%
    20:00 0°C° 1.5 mm 7 mps 722 mmHg 86%
    21:00 -1°C° 0.8 mm 7 mps 722 mmHg 86%
    22:00 -1°C° 0.8 mm 7 mps 723 mmHg 86%
    23:00 -1°C° 0.8 mm 7 mps 723 mmHg 86%

    26 October, Friday

    Time Temperature Precipitation Wind Pressure Humidity
    00:00 -1°C° 0.3 mm 6 mps 723 mmHg 86%
    01:00 -1°C° 0.3 mm 6 mps 724 mmHg 85%
    02:00 -1°C° 0.3 mm 6 mps 725 mmHg 85%
    03:00 -2°C° 0.1 mm 6 mps 725 mmHg 84%
    04:00 -2°C° 0.1 mm 6 mps 726 mmHg 83%
    05:00 -2°C° 0.1 mm 6 mps 727 mmHg 82%
    06:00 -2°C° 0 mm 6 mps 727 mmHg 82%
    07:00 -2°C° 0 mm 6 mps 728 mmHg 81%
    08:00 -2°C° 0 mm 6 mps 729 mmHg 81%
    09:00 -2°C° 0 mm 6 mps 730 mmHg 79%
    10:00 -1°C° 0 mm 6 mps 730 mmHg 77%
    11:00 -1°C° 0 mm 6 mps 731 mmHg 75%
    12:00 -1°C° 0 mm 6 mps 732 mmHg 74%
    13:00 -1°C° 0 mm 6 mps 732 mmHg 73%
    14:00 0°C° 0 mm 5 mps 733 mmHg 71%
    15:00 0°C° 0 mm 5 mps 734 mmHg 74%
    16:00 0°C° 0 mm 4 mps 734 mmHg 77%
    17:00 0°C° 0 mm 4 mps 735 mmHg 80%
    18:00 0°C° 0 mm 4 mps 736 mmHg 82%
    19:00 -1°C° 0 mm 4 mps 736 mmHg 84%
    20:00 -1°C° 0 mm 4 mps 737 mmHg 85%
    21:00 -1°C° 0 mm 4 mps 737 mmHg 87%
    22:00 -1°C° 0 mm 4 mps 738 mmHg 89%
    23:00 -2°C° 0 mm 4 mps 738 mmHg 91%

    27 October, Saturday

    Time Temperature Precipitation Wind Pressure Humidity
    00:00 -2°C° 0 mm 4 mps 739 mmHg 91%
    01:00 -1°C° 0 mm 4 mps 739 mmHg 91%
    02:00 -1°C° 0 mm 4 mps 740 mmHg 91%
    03:00 -1°C° 0 mm 4 mps 740 mmHg 92%
    04:00 -2°C° 0 mm 4 mps 741 mmHg 92%
    05:00 -1°C° 0 mm 3 mps 741 mmHg 92%
    06:00 -2°C° 0 mm 4 mps 741 mmHg 92%
    07:00 -2°C° 0 mm 4 mps 742 mmHg 92%
    08:00 -1°C° 0 mm 4 mps 742 mmHg 91%
    09:00 -1°C° 0 mm 4 mps 742 mmHg 90%
    10:00 0°C° 0 mm 4 mps 743 mmHg 88%
    11:00 +1°C° 0 mm 3 mps 743 mmHg 86%
    12:00 +1°C° 0 mm 3 mps 743 mmHg 85%
    13:00 +2°C° 0 mm 3 mps 743 mmHg 85%
    14:00 +2°C° 0 mm 3 mps 742 mmHg 84%
    15:00 +1°C° 0.2 mm 4 mps 742 mmHg 85%
    16:00 +1°C° 0.2 mm 4 mps 742 mmHg 86%
    17:00 +1°C° 0.2 mm 4 mps 741 mmHg 87%
    18:00 +1°C° 0.5 mm 4 mps 741 mmHg 88%
    19:00 +2°C° 0.5 mm 5 mps 740 mmHg 88%
    20:00 +2°C° 0.5 mm 5 mps 740 mmHg 88%
    21:00 +3°C° 0.5 mm 5 mps 740 mmHg 89%
    22:00 +3°C° 0.5 mm 5 mps 740 mmHg 90%
    23:00 +3°C° 0.5 mm 5 mps 739 mmHg 90%

    28 October, Sunday

    Time Temperature Precipitation Wind Pressure Humidity
    00:00 +5°C° 0.1 mm 5 mps 740 mmHg 90%
    01:00 +5°C° 0.1 mm 4 mps 740 mmHg 90%
    02:00 +5°C° 0.1 mm 4 mps 740 mmHg 90%
    03:00 +5°C° 0 mm 4 mps 741 mmHg 91%
    04:00 +5°C° 0 mm 4 mps 741 mmHg 93%
    05:00 +4°C° 0 mm 3 mps 741 mmHg 94%
    06:00 +4°C° 0 mm 3 mps 742 mmHg 94%
    07:00 +4°C° 0 mm 3 mps 742 mmHg 95%
    08:00 +5°C° 0 mm 2 mps 743 mmHg 95%
    09:00 +5°C° 0.1 mm 2 mps 743 mmHg 94%
    10:00 +6°C° 0.1 mm 2 mps 743 mmHg 93%
    11:00 +7°C° 0.1 mm 1 mps 744 mmHg 92%
    12:00 +7°C° 0.2 mm 1 mps 744 mmHg 92%
    13:00 +7°C° 0.2 mm 1 mps 743 mmHg 92%
    14:00 +7°C° 0.2 mm 1 mps 743 mmHg 93%
    15:00 +7°C° 1 mm 1 mps 743 mmHg 94%
    16:00 +5°C° 1 mm 2 mps 743 mmHg 95%
    17:00 +5°C° 1 mm 2 mps 743 mmHg 96%
    18:00 +4°C° 0.7 mm 3 mps 742 mmHg 96%
    19:00 +4°C° 0.7 mm 3 mps 742 mmHg 95%
    20:00 +4°C° 0.7 mm 4 mps 741 mmHg 94%
    21:00 +4°C° 1 mm 4 mps 741 mmHg 95%
    22:00 +5°C° 1 mm 3 mps 740 mmHg 95%
    23:00 +5°C° 1 mm 3 mps 740 mmHg 96%
    Show more